owner,sensor,date,latitude,longitude,sea_surface_height_above_sea_level,qcFlag 
TCOON,ioos:station:TCOON:068:1,2017-04-01T00:18:00Z,27.2970,-97.4049,4.182,1111122 
TCOON,ioos:station:TCOON:068:1,2017-04-01T01:24:00Z,27.2970,-97.4049,4.195,1111122 
TCOON,ioos:station:TCOON:068:1,2017-04-01T02:18:00Z,27.2970,-97.4049,4.208,1111122 
TCOON,ioos:station:TCOON:068:1,2017-04-01T03:18:00Z,27.2970,-97.4049,4.214,1111122 
TCOON,ioos:station:TCOON:068:1,2017-04-01T04:18:00Z,27.2970,-97.4049,4.211,1111122 
TCOON,ioos:station:TCOON:068:1,2017-04-01T05:18:00Z,27.2970,-97.4049,4.209,1111122 
TCOON,ioos:station:TCOON:068:1,2017-04-01T06:18:00Z,27.2970,-97.4049,4.202,1111122 
TCOON,ioos:station:TCOON:068:1,2017-04-01T07:18:00Z,27.2970,-97.4049,4.201,1111122 
TCOON,ioos:station:TCOON:068:1,2017-04-01T08:24:00Z,27.2970,-97.4049,4.211,1111122 
TCOON,ioos:station:TCOON:068:1,2017-04-01T09:18:00Z,27.2970,-97.4049,4.217,1111122 
TCOON,ioos:station:TCOON:068:1,2017-04-01T10:18:00Z,27.2970,-97.4049,4.218,1111122 
TCOON,ioos:station:TCOON:068:1,2017-04-01T11:18:00Z,27.2970,-97.4049,4.215,1111122 
TCOON,ioos:station:TCOON:068:1,2017-04-01T12:18:00Z,27.2970,-97.4049,4.191,1111122 
TCOON,ioos:station:TCOON:068:1,2017-04-01T13:18:00Z,27.2970,-97.4049,4.202,1111122 
TCOON,ioos:station:TCOON:068:1,2017-04-01T14:18:00Z,27.2970,-97.4049,4.208,1111122 
TCOON,ioos:station:TCOON:068:1,2017-04-01T15:18:00Z,27.2970,-97.4049,4.21,1111122 
TCOON,ioos:station:TCOON:068:1,2017-04-01T16:18:00Z,27.2970,-97.4049,4.208,1111122 
TCOON,ioos:station:TCOON:068:1,2017-04-01T17:18:00Z,27.2970,-97.4049,4.202,1111122 
TCOON,ioos:station:TCOON:068:1,2017-04-01T18:24:00Z,27.2970,-97.4049,4.184,1111122 
TCOON,ioos:station:TCOON:068:1,2017-04-01T19:18:00Z,27.2970,-97.4049,4.179,1111122 
TCOON,ioos:station:TCOON:068:1,2017-04-01T20:18:00Z,27.2970,-97.4049,4.172,1111122 
TCOON,ioos:station:TCOON:068:1,2017-04-01T21:18:00Z,27.2970,-97.4049,4.167,1111122 
TCOON,ioos:station:TCOON:068:1,2017-04-01T22:18:00Z,27.2970,-97.4049,4.175,1111122 
TCOON,ioos:station:TCOON:068:1,2017-04-01T23:18:00Z,27.2970,-97.4049,4.178,1111122 
TCOON,ioos:station:TCOON:068:1,2017-04-02T00:18:00Z,27.2970,-97.4049,4.183,1111122 
TCOON,ioos:station:TCOON:068:1,2017-04-02T01:18:00Z,27.2970,-97.4049,4.209,1111122 
TCOON,ioos:station:TCOON:068:1,2017-04-02T02:18:00Z,27.2970,-97.4049,4.221,1111122 
TCOON,ioos:station:TCOON:068:1,2017-04-02T03:18:00Z,27.2970,-97.4049,4.231,1111122 
TCOON,ioos:station:TCOON:068:1,2017-04-02T04:18:00Z,27.2970,-97.4049,4.241,1111122 
TCOON,ioos:station:TCOON:068:1,2017-04-02T05:24:00Z,27.2970,-97.4049,4.252,1111122 
TCOON,ioos:station:TCOON:068:1,2017-04-02T06:24:00Z,27.2970,-97.4049,4.261,1111122 
TCOON,ioos:station:TCOON:068:1,2017-04-02T07:18:00Z,27.2970,-97.4049,4.263,1111122 
TCOON,ioos:station:TCOON:068:1,2017-04-02T08:24:00Z,27.2970,-97.4049,4.268,1111122 
TCOON,ioos:station:TCOON:068:1,2017-04-02T09:18:00Z,27.2970,-97.4049,4.268,1111122 
TCOON,ioos:station:TCOON:068:1,2017-04-02T10:18:00Z,27.2970,-97.4049,4.263,1111122 
TCOON,ioos:station:TCOON:068:1,2017-04-02T11:18:00Z,27.2970,-97.4049,4.267,1111122 
TCOON,ioos:station:TCOON:068:1,2017-04-02T12:18:00Z,27.2970,-97.4049,4.282,1111122 
TCOON,ioos:station:TCOON:068:1,2017-04-02T13:18:00Z,27.2970,-97.4049,4.289,1111122 
TCOON,ioos:station:TCOON:068:1,2017-04-02T14:18:00Z,27.2970,-97.4049,4.297,1111122 
TCOON,ioos:station:TCOON:068:1,2017-04-02T15:24:00Z,27.2970,-97.4049,4.31,1111122 
TCOON,ioos:station:TCOON:068:1,2017-04-02T16:18:00Z,27.2970,-97.4049,4.308,1111122 
TCOON,ioos:station:TCOON:068:1,2017-04-02T17:18:00Z,27.2970,-97.4049,4.286,1111122 
TCOON,ioos:station:TCOON:068:1,2017-04-02T18:18:00Z,27.2970,-97.4049,4.294,1111122 
TCOON,ioos:station:TCOON:068:1,2017-04-02T19:18:00Z,27.2970,-97.4049,4.295,1111122 
TCOON,ioos:station:TCOON:068:1,2017-04-02T20:18:00Z,27.2970,-97.4049,4.29,1111122 
TCOON,ioos:station:TCOON:068:1,2017-04-02T21:18:00Z,27.2970,-97.4049,4.276,1111122 
TCOON,ioos:station:TCOON:068:1,2017-04-02T22:18:00Z,27.2970,-97.4049,4.29,1111122 
TCOON,ioos:station:TCOON:068:1,2017-04-02T23:18:00Z,27.2970,-97.4049,4.304,1111122 
TCOON,ioos:station:TCOON:068:1,2017-04-03T00:18:00Z,27.2970,-97.4049,4.303,1111122 
TCOON,ioos:station:TCOON:068:1,2017-04-03T01:18:00Z,27.2970,-97.4049,4.31,1111122 
TCOON,ioos:station:TCOON:068:1,2017-04-03T02:18:00Z,27.2970,-97.4049,4.307,1111122 
TCOON,ioos:station:TCOON:068:1,2017-04-03T03:18:00Z,27.2970,-97.4049,4.325,1111122 
TCOON,ioos:station:TCOON:068:1,2017-04-03T04:18:00Z,27.2970,-97.4049,4.361,1111122 
TCOON,ioos:station:TCOON:068:1,2017-04-03T05:24:00Z,27.2970,-97.4049,4.361,1111122 
TCOON,ioos:station:TCOON:068:1,2017-04-03T06:18:00Z,27.2970,-97.4049,4.337,1111122 
TCOON,ioos:station:TCOON:068:1,2017-04-03T07:18:00Z,27.2970,-97.4049,4.332,1111122 
TCOON,ioos:station:TCOON:068:1,2017-04-03T08:18:00Z,27.2970,-97.4049,4.333,1111122 
TCOON,ioos:station:TCOON:068:1,2017-04-03T09:18:00Z,27.2970,-97.4049,4.328,1111122 
TCOON,ioos:station:TCOON:068:1,2017-04-03T10:18:00Z,27.2970,-97.4049,4.338,1111122 
TCOON,ioos:station:TCOON:068:1,2017-04-03T11:18:00Z,27.2970,-97.4049,4.335,1111122 
TCOON,ioos:station:TCOON:068:1,2017-04-03T13:24:00Z,27.2970,-97.4049,4.337,1111122 
TCOON,ioos:station:TCOON:068:1,2017-04-03T14:18:00Z,27.2970,-97.4049,4.341,1111122 
TCOON,ioos:station:TCOON:068:1,2017-04-03T15:18:00Z,27.2970,-97.4049,4.346,1111122 
TCOON,ioos:station:TCOON:068:1,2017-04-03T16:18:00Z,27.2970,-97.4049,4.335,1111122 
TCOON,ioos:station:TCOON:068:1,2017-04-03T17:18:00Z,27.2970,-97.4049,4.333,1111122 
TCOON,ioos:station:TCOON:068:1,2017-04-03T18:18:00Z,27.2970,-97.4049,4.333,1111122 
TCOON,ioos:station:TCOON:068:1,2017-04-03T19:18:00Z,27.2970,-97.4049,4.332,1111122 
TCOON,ioos:station:TCOON:068:1,2017-04-03T20:18:00Z,27.2970,-97.4049,4.329,1111122 
TCOON,ioos:station:TCOON:068:1,2017-04-03T21:18:00Z,27.2970,-97.4049,4.32,1111122 
TCOON,ioos:station:TCOON:068:1,2017-04-03T22:18:00Z,27.2970,-97.4049,4.315,1111122 
TCOON,ioos:station:TCOON:068:1,2017-04-04T00:18:00Z,27.2970,-97.4049,4.307,1111122 
TCOON,ioos:station:TCOON:068:1,2017-04-04T01:18:00Z,27.2970,-97.4049,4.312,1111122 
TCOON,ioos:station:TCOON:068:1,2017-04-04T02:18:00Z,27.2970,-97.4049,4.32,1111122 
TCOON,ioos:station:TCOON:068:1,2017-04-04T03:18:00Z,27.2970,-97.4049,4.323,1111122 
TCOON,ioos:station:TCOON:068:1,2017-04-04T04:18:00Z,27.2970,-97.4049,4.317,1111122 
TCOON,ioos:station:TCOON:068:1,2017-04-04T05:18:00Z,27.2970,-97.4049,4.32,1111122 
TCOON,ioos:station:TCOON:068:1,2017-04-04T06:18:00Z,27.2970,-97.4049,4.318,1111122 
TCOON,ioos:station:TCOON:068:1,2017-04-04T07:18:00Z,27.2970,-97.4049,4.32,1111122 
TCOON,ioos:station:TCOON:068:1,2017-04-04T08:18:00Z,27.2970,-97.4049,4.321,1111122 
TCOON,ioos:station:TCOON:068:1,2017-04-04T09:24:00Z,27.2970,-97.4049,4.326,1111122 
TCOON,ioos:station:TCOON:068:1,2017-04-04T10:18:00Z,27.2970,-97.4049,4.322,1111122 
TCOON,ioos:station:TCOON:068:1,2017-04-04T11:18:00Z,27.2970,-97.4049,4.318,1111122 
TCOON,ioos:station:TCOON:068:1,2017-04-04T12:24:00Z,27.2970,-97.4049,4.312,1111122 
TCOON,ioos:station:TCOON:068:1,2017-04-04T13:24:00Z,27.2970,-97.4049,4.312,1111122 
TCOON,ioos:station:TCOON:068:1,2017-04-04T14:18:00Z,27.2970,-97.4049,4.314,1111122 
TCOON,ioos:station:TCOON:068:1,2017-04-04T15:18:00Z,27.2970,-97.4049,4.309,1111122 
TCOON,ioos:station:TCOON:068:1,2017-04-04T16:18:00Z,27.2970,-97.4049,4.297,1111122 
TCOON,ioos:station:TCOON:068:1,2017-04-04T17:18:00Z,27.2970,-97.4049,4.284,1111122 
TCOON,ioos:station:TCOON:068:1,2017-04-04T18:18:00Z,27.2970,-97.4049,4.273,1111122 
TCOON,ioos:station:TCOON:068:1,2017-04-04T19:24:00Z,27.2970,-97.4049,4.278,1111122 
TCOON,ioos:station:TCOON:068:1,2017-04-04T20:24:00Z,27.2970,-97.4049,4.273,1111122 
TCOON,ioos:station:TCOON:068:1,2017-04-04T21:24:00Z,27.2970,-97.4049,4.266,1111122 
TCOON,ioos:station:TCOON:068:1,2017-04-04T22:18:00Z,27.2970,-97.4049,4.262,1111122 
TCOON,ioos:station:TCOON:068:1,2017-04-06T14:18:00Z,27.2970,-97.4049,4.29,1111122 
TCOON,ioos:station:TCOON:068:1,2017-04-06T15:18:00Z,27.2970,-97.4049,4.272,1111122 
TCOON,ioos:station:TCOON:068:1,2017-04-06T16:18:00Z,27.2970,-97.4049,4.269,1111122 
TCOON,ioos:station:TCOON:068:1,2017-04-06T17:18:00Z,27.2970,-97.4049,4.274,1111122 
TCOON,ioos:station:TCOON:068:1,2017-04-06T18:18:00Z,27.2970,-97.4049,4.266,1111122 
TCOON,ioos:station:TCOON:068:1,2017-04-06T19:18:00Z,27.2970,-97.4049,4.265,1111122 
TCOON,ioos:station:TCOON:068:1,2017-04-06T20:18:00Z,27.2970,-97.4049,4.262,1111122 
TCOON,ioos:station:TCOON:068:1,2017-04-06T21:18:00Z,27.2970,-97.4049,4.262,1111122 
TCOON,ioos:station:TCOON:068:1,2017-04-06T22:18:00Z,27.2970,-97.4049,4.267,1111122 
TCOON,ioos:station:TCOON:068:1,2017-04-06T23:18:00Z,27.2970,-97.4049,4.262,1111122 
TCOON,ioos:station:TCOON:068:1,2017-04-07T00:18:00Z,27.2970,-97.4049,4.254,1111122 
TCOON,ioos:station:TCOON:068:1,2017-04-07T01:18:00Z,27.2970,-97.4049,4.247,1111122 
TCOON,ioos:station:TCOON:068:1,2017-04-07T02:18:00Z,27.2970,-97.4049,4.251,1111122 
TCOON,ioos:station:TCOON:068:1,2017-04-07T03:18:00Z,27.2970,-97.4049,4.258,1111122 
TCOON,ioos:station:TCOON:068:1,2017-04-07T04:18:00Z,27.2970,-97.4049,4.265,1111122 
TCOON,ioos:station:TCOON:068:1,2017-04-07T05:18:00Z,27.2970,-97.4049,4.263,1111122 
TCOON,ioos:station:TCOON:068:1,2017-04-07T06:24:00Z,27.2970,-97.4049,4.255,1111122 
TCOON,ioos:station:TCOON:068:1,2017-04-07T07:18:00Z,27.2970,-97.4049,4.25,1111122 
TCOON,ioos:station:TCOON:068:1,2017-04-07T08:18:00Z,27.2970,-97.4049,4.245,1111122 
TCOON,ioos:station:TCOON:068:1,2017-04-07T09:18:00Z,27.2970,-97.4049,4.247,1111122 
TCOON,ioos:station:TCOON:068:1,2017-04-07T10:18:00Z,27.2970,-97.4049,4.238,1111122 
TCOON,ioos:station:TCOON:068:1,2017-04-07T11:18:00Z,27.2970,-97.4049,4.241,1111122 
TCOON,ioos:station:TCOON:068:1,2017-04-07T12:18:00Z,27.2970,-97.4049,4.243,1111122 
TCOON,ioos:station:TCOON:068:1,2017-04-07T13:18:00Z,27.2970,-97.4049,4.245,1111122 
TCOON,ioos:station:TCOON:068:1,2017-04-07T14:18:00Z,27.2970,-97.4049,4.245,1111122 
TCOON,ioos:station:TCOON:068:1,2017-04-07T15:18:00Z,27.2970,-97.4049,4.236,1111122 
TCOON,ioos:station:TCOON:068:1,2017-04-07T16:18:00Z,27.2970,-97.4049,4.227,1111122 
TCOON,ioos:station:TCOON:068:1,2017-04-07T17:18:00Z,27.2970,-97.4049,4.219,1111122 
TCOON,ioos:station:TCOON:068:1,2017-04-07T18:18:00Z,27.2970,-97.4049,4.212,1111122 
TCOON,ioos:station:TCOON:068:1,2017-04-07T19:18:00Z,27.2970,-97.4049,4.209,1111122 
TCOON,ioos:station:TCOON:068:1,2017-04-07T20:18:00Z,27.2970,-97.4049,4.202,1111122 
TCOON,ioos:station:TCOON:068:1,2017-04-07T21:18:00Z,27.2970,-97.4049,4.199,1111122 
TCOON,ioos:station:TCOON:068:1,2017-04-07T22:18:00Z,27.2970,-97.4049,4.198,1111122 
TCOON,ioos:station:TCOON:068:1,2017-04-07T23:18:00Z,27.2970,-97.4049,4.181,1111122 
TCOON,ioos:station:TCOON:068:1,2017-04-08T00:18:00Z,27.2970,-97.4049,4.175,1111122 
TCOON,ioos:station:TCOON:068:1,2017-04-08T01:18:00Z,27.2970,-97.4049,4.183,1111122 
TCOON,ioos:station:TCOON:068:1,2017-04-08T02:18:00Z,27.2970,-97.4049,4.204,1111122 
TCOON,ioos:station:TCOON:068:1,2017-04-08T03:18:00Z,27.2970,-97.4049,4.213,1111122 
TCOON,ioos:station:TCOON:068:1,2017-04-08T04:18:00Z,27.2970,-97.4049,4.208,1111122 
TCOON,ioos:station:TCOON:068:1,2017-04-08T05:18:00Z,27.2970,-97.4049,4.201,1111122 
TCOON,ioos:station:TCOON:068:1,2017-04-08T06:18:00Z,27.2970,-97.4049,4.196,1111122 
TCOON,ioos:station:TCOON:068:1,2017-04-08T07:18:00Z,27.2970,-97.4049,4.194,1111122 
TCOON,ioos:station:TCOON:068:1,2017-04-08T08:18:00Z,27.2970,-97.4049,4.194,1111122 
TCOON,ioos:station:TCOON:068:1,2017-04-08T09:18:00Z,27.2970,-97.4049,4.202,1111122 
TCOON,ioos:station:TCOON:068:1,2017-04-08T10:18:00Z,27.2970,-97.4049,4.203,1111122 
TCOON,ioos:station:TCOON:068:1,2017-04-08T11:18:00Z,27.2970,-97.4049,4.204,1111122 
TCOON,ioos:station:TCOON:068:1,2017-04-08T12:18:00Z,27.2970,-97.4049,4.2,1111122 
TCOON,ioos:station:TCOON:068:1,2017-04-08T13:18:00Z,27.2970,-97.4049,4.197,1111122 
TCOON,ioos:station:TCOON:068:1,2017-04-08T14:18:00Z,27.2970,-97.4049,4.199,1111122 
TCOON,ioos:station:TCOON:068:1,2017-04-08T15:18:00Z,27.2970,-97.4049,4.187,1111122 
TCOON,ioos:station:TCOON:068:1,2017-04-08T16:18:00Z,27.2970,-97.4049,4.166,1111122 
TCOON,ioos:station:TCOON:068:1,2017-04-08T17:18:00Z,27.2970,-97.4049,4.153,1111122 
TCOON,ioos:station:TCOON:068:1,2017-04-08T18:18:00Z,27.2970,-97.4049,4.137,1111122 
TCOON,ioos:station:TCOON:068:1,2017-04-08T19:18:00Z,27.2970,-97.4049,4.14,1111122 
TCOON,ioos:station:TCOON:068:1,2017-04-08T20:18:00Z,27.2970,-97.4049,4.129,1111122 
TCOON,ioos:station:TCOON:068:1,2017-04-08T21:18:00Z,27.2970,-97.4049,4.119,1111122 
TCOON,ioos:station:TCOON:068:1,2017-04-08T22:18:00Z,27.2970,-97.4049,4.112,1111122 
TCOON,ioos:station:TCOON:068:1,2017-04-08T23:18:00Z,27.2970,-97.4049,4.115,1111122 
TCOON,ioos:station:TCOON:068:1,2017-04-09T00:18:00Z,27.2970,-97.4049,4.121,1111122 
TCOON,ioos:station:TCOON:068:1,2017-04-09T01:18:00Z,27.2970,-97.4049,4.121,1111122 
TCOON,ioos:station:TCOON:068:1,2017-04-09T02:18:00Z,27.2970,-97.4049,4.137,1111122 
TCOON,ioos:station:TCOON:068:1,2017-04-09T03:18:00Z,27.2970,-97.4049,4.147,1111122 
TCOON,ioos:station:TCOON:068:1,2017-04-09T04:18:00Z,27.2970,-97.4049,4.152,1111122 
TCOON,ioos:station:TCOON:068:1,2017-04-09T05:18:00Z,27.2970,-97.4049,4.145,1111122 
TCOON,ioos:station:TCOON:068:1,2017-04-09T06:18:00Z,27.2970,-97.4049,4.151,1111122 
TCOON,ioos:station:TCOON:068:1,2017-04-09T07:18:00Z,27.2970,-97.4049,4.154,1111122 
TCOON,ioos:station:TCOON:068:1,2017-04-09T08:18:00Z,27.2970,-97.4049,4.143,1111122 
TCOON,ioos:station:TCOON:068:1,2017-04-09T09:18:00Z,27.2970,-97.4049,4.144,1111122 
TCOON,ioos:station:TCOON:068:1,2017-04-09T10:18:00Z,27.2970,-97.4049,4.154,1111122 
TCOON,ioos:station:TCOON:068:1,2017-04-09T11:18:00Z,27.2970,-97.4049,4.158,1111122 
TCOON,ioos:station:TCOON:068:1,2017-04-09T12:18:00Z,27.2970,-97.4049,4.155,1111122 
TCOON,ioos:station:TCOON:068:1,2017-04-09T13:18:00Z,27.2970,-97.4049,4.159,1111122 
TCOON,ioos:station:TCOON:068:1,2017-04-09T14:12:00Z,27.2970,-97.4049,4.157,1111122 
TCOON,ioos:station:TCOON:068:1,2017-04-09T15:18:00Z,27.2970,-97.4049,4.139,1111122 
TCOON,ioos:station:TCOON:068:1,2017-04-09T16:18:00Z,27.2970,-97.4049,4.124,1111122 
TCOON,ioos:station:TCOON:068:1,2017-04-09T17:18:00Z,27.2970,-97.4049,4.112,1111122 
TCOON,ioos:station:TCOON:068:1,2017-04-09T18:18:00Z,27.2970,-97.4049,4.105,1111122 
TCOON,ioos:station:TCOON:068:1,2017-04-09T19:12:00Z,27.2970,-97.4049,4.097,1111122 
TCOON,ioos:station:TCOON:068:1,2017-04-09T20:18:00Z,27.2970,-97.4049,4.08,1111122 
TCOON,ioos:station:TCOON:068:1,2017-04-09T21:18:00Z,27.2970,-97.4049,4.073,1111122 
TCOON,ioos:station:TCOON:068:1,2017-04-09T22:18:00Z,27.2970,-97.4049,4.072,1111122 
TCOON,ioos:station:TCOON:068:1,2017-04-09T23:18:00Z,27.2970,-97.4049,4.079,1111122 
TCOON,ioos:station:TCOON:068:1,2017-04-10T00:12:00Z,27.2970,-97.4049,4.078,1111122 
TCOON,ioos:station:TCOON:068:1,2017-04-10T01:18:00Z,27.2970,-97.4049,4.08,1111122 
TCOON,ioos:station:TCOON:068:1,2017-04-10T02:18:00Z,27.2970,-97.4049,4.09,1111122 
TCOON,ioos:station:TCOON:068:1,2017-04-10T03:18:00Z,27.2970,-97.4049,4.104,1111122 
TCOON,ioos:station:TCOON:068:1,2017-04-10T04:18:00Z,27.2970,-97.4049,4.119,1111122 
TCOON,ioos:station:TCOON:068:1,2017-04-10T05:18:00Z,27.2970,-97.4049,4.117,1111122 
TCOON,ioos:station:TCOON:068:1,2017-04-10T06:18:00Z,27.2970,-97.4049,4.109,1111122 
TCOON,ioos:station:TCOON:068:1,2017-04-10T07:18:00Z,27.2970,-97.4049,4.118,1111122 
TCOON,ioos:station:TCOON:068:1,2017-04-10T08:18:00Z,27.2970,-97.4049,4.12,1111122 
TCOON,ioos:station:TCOON:068:1,2017-04-10T09:18:00Z,27.2970,-97.4049,4.119,1111122 
TCOON,ioos:station:TCOON:068:1,2017-04-10T10:18:00Z,27.2970,-97.4049,4.128,1111122 
TCOON,ioos:station:TCOON:068:1,2017-04-10T11:18:00Z,27.2970,-97.4049,4.129,1111122 
TCOON,ioos:station:TCOON:068:1,2017-04-10T12:18:00Z,27.2970,-97.4049,4.123,1111122 
TCOON,ioos:station:TCOON:068:1,2017-04-10T13:18:00Z,27.2970,-97.4049,4.119,1111122 
TCOON,ioos:station:TCOON:068:1,2017-04-10T14:18:00Z,27.2970,-97.4049,4.115,1111122 
TCOON,ioos:station:TCOON:068:1,2017-04-10T15:18:00Z,27.2970,-97.4049,4.113,1111122 
TCOON,ioos:station:TCOON:068:1,2017-04-10T16:18:00Z,27.2970,-97.4049,4.104,1111122 
TCOON,ioos:station:TCOON:068:1,2017-04-10T17:18:00Z,27.2970,-97.4049,4.11,1111122 
TCOON,ioos:station:TCOON:068:1,2017-04-10T18:18:00Z,27.2970,-97.4049,4.113,1111122 
TCOON,ioos:station:TCOON:068:1,2017-04-10T20:18:00Z,27.2970,-97.4049,4.093,1111122 
TCOON,ioos:station:TCOON:068:1,2017-04-10T21:18:00Z,27.2970,-97.4049,4.094,1111122 
TCOON,ioos:station:TCOON:068:1,2017-04-10T22:18:00Z,27.2970,-97.4049,4.1,1111122 
TCOON,ioos:station:TCOON:068:1,2017-04-10T23:18:00Z,27.2970,-97.4049,4.102,1111122 
TCOON,ioos:station:TCOON:068:1,2017-04-11T00:18:00Z,27.2970,-97.4049,4.092,1111122 
TCOON,ioos:station:TCOON:068:1,2017-04-11T01:18:00Z,27.2970,-97.4049,4.106,1111122 
TCOON,ioos:station:TCOON:068:1,2017-04-11T02:18:00Z,27.2970,-97.4049,4.127,1111122 
TCOON,ioos:station:TCOON:068:1,2017-04-11T03:18:00Z,27.2970,-97.4049,4.134,1111122 
TCOON,ioos:station:TCOON:068:1,2017-04-11T04:18:00Z,27.2970,-97.4049,4.134,1111122 
TCOON,ioos:station:TCOON:068:1,2017-04-11T05:18:00Z,27.2970,-97.4049,4.142,1111122 
TCOON,ioos:station:TCOON:068:1,2017-04-11T06:18:00Z,27.2970,-97.4049,4.143,1111122 
TCOON,ioos:station:TCOON:068:1,2017-04-11T07:18:00Z,27.2970,-97.4049,4.151,1111122 
TCOON,ioos:station:TCOON:068:1,2017-04-11T08:18:00Z,27.2970,-97.4049,4.159,1111122 
TCOON,ioos:station:TCOON:068:1,2017-04-11T09:18:00Z,27.2970,-97.4049,4.163,1111122 
TCOON,ioos:station:TCOON:068:1,2017-04-11T10:18:00Z,27.2970,-97.4049,4.147,1111122 
TCOON,ioos:station:TCOON:068:1,2017-04-11T11:18:00Z,27.2970,-97.4049,4.135,1111122 
TCOON,ioos:station:TCOON:068:1,2017-04-11T12:12:00Z,27.2970,-97.4049,4.105,1111122 
TCOON,ioos:station:TCOON:068:1,2017-04-11T13:12:00Z,27.2970,-97.4049,4.106,1111122 
TCOON,ioos:station:TCOON:068:1,2017-04-11T14:18:00Z,27.2970,-97.4049,4.147,1111122 
TCOON,ioos:station:TCOON:068:1,2017-04-11T15:18:00Z,27.2970,-97.4049,4.139,1111122 
TCOON,ioos:station:TCOON:068:1,2017-04-11T16:18:00Z,27.2970,-97.4049,4.141,1111122 
TCOON,ioos:station:TCOON:068:1,2017-04-11T17:18:00Z,27.2970,-97.4049,4.138,1111122 
TCOON,ioos:station:TCOON:068:1,2017-04-11T18:18:00Z,27.2970,-97.4049,4.147,1111122 
TCOON,ioos:station:TCOON:068:1,2017-04-11T19:18:00Z,27.2970,-97.4049,4.147,1111122 
TCOON,ioos:station:TCOON:068:1,2017-04-11T20:18:00Z,27.2970,-97.4049,4.136,1111122 
TCOON,ioos:station:TCOON:068:1,2017-04-11T21:18:00Z,27.2970,-97.4049,4.139,1111122 
TCOON,ioos:station:TCOON:068:1,2017-04-11T22:18:00Z,27.2970,-97.4049,4.128,1111122 
TCOON,ioos:station:TCOON:068:1,2017-04-11T23:18:00Z,27.2970,-97.4049,4.127,1111122 
TCOON,ioos:station:TCOON:068:1,2017-04-12T00:18:00Z,27.2970,-97.4049,4.115,1111122 
TCOON,ioos:station:TCOON:068:1,2017-04-12T01:18:00Z,27.2970,-97.4049,3.953,1111122 
TCOON,ioos:station:TCOON:068:1,2017-04-12T02:18:00Z,27.2970,-97.4049,3.909,1111122 
TCOON,ioos:station:TCOON:068:1,2017-04-12T03:18:00Z,27.2970,-97.4049,4.111,1111122 
TCOON,ioos:station:TCOON:068:1,2017-04-12T04:18:00Z,27.2970,-97.4049,4.13,1111122 
TCOON,ioos:station:TCOON:068:1,2017-04-12T05:18:00Z,27.2970,-97.4049,4.129,1111122 
TCOON,ioos:station:TCOON:068:1,2017-04-12T06:18:00Z,27.2970,-97.4049,4.209,1111122 
TCOON,ioos:station:TCOON:068:1,2017-04-12T07:18:00Z,27.2970,-97.4049,4.221,1111122 
TCOON,ioos:station:TCOON:068:1,2017-04-12T08:18:00Z,27.2970,-97.4049,4.237,1111122 
TCOON,ioos:station:TCOON:068:1,2017-04-12T09:18:00Z,27.2970,-97.4049,4.231,1111122 
TCOON,ioos:station:TCOON:068:1,2017-04-12T10:18:00Z,27.2970,-97.4049,4.217,1111122 
TCOON,ioos:station:TCOON:068:1,2017-04-12T11:18:00Z,27.2970,-97.4049,4.21,1111122 
TCOON,ioos:station:TCOON:068:1,2017-04-12T12:18:00Z,27.2970,-97.4049,4.207,1111122 
TCOON,ioos:station:TCOON:068:1,2017-04-12T13:18:00Z,27.2970,-97.4049,4.205,1111122 
TCOON,ioos:station:TCOON:068:1,2017-04-12T14:18:00Z,27.2970,-97.4049,4.202,1111122 
TCOON,ioos:station:TCOON:068:1,2017-04-12T15:18:00Z,27.2970,-97.4049,4.185,1111122 
TCOON,ioos:station:TCOON:068:1,2017-04-12T16:18:00Z,27.2970,-97.4049,4.187,1111122 
TCOON,ioos:station:TCOON:068:1,2017-04-12T17:18:00Z,27.2970,-97.4049,4.209,1111122 
TCOON,ioos:station:TCOON:068:1,2017-04-12T18:18:00Z,27.2970,-97.4049,4.213,1111122 
TCOON,ioos:station:TCOON:068:1,2017-04-12T19:18:00Z,27.2970,-97.4049,4.219,1111122 
TCOON,ioos:station:TCOON:068:1,2017-04-12T20:18:00Z,27.2970,-97.4049,4.235,1111122 
TCOON,ioos:station:TCOON:068:1,2017-04-12T21:18:00Z,27.2970,-97.4049,4.225,1111122 
TCOON,ioos:station:TCOON:068:1,2017-04-12T22:18:00Z,27.2970,-97.4049,4.217,1111122 
TCOON,ioos:station:TCOON:068:1,2017-04-12T23:18:00Z,27.2970,-97.4049,4.229,1111122 
TCOON,ioos:station:TCOON:068:1,2017-04-13T00:18:00Z,27.2970,-97.4049,4.22,1111122 
TCOON,ioos:station:TCOON:068:1,2017-04-13T01:18:00Z,27.2970,-97.4049,4.219,1111122 
TCOON,ioos:station:TCOON:068:1,2017-04-13T02:12:00Z,27.2970,-97.4049,4.232,1111122 
TCOON,ioos:station:TCOON:068:1,2017-04-13T03:18:00Z,27.2970,-97.4049,4.24,1111122 
TCOON,ioos:station:TCOON:068:1,2017-04-13T04:18:00Z,27.2970,-97.4049,4.253,1111122 
TCOON,ioos:station:TCOON:068:1,2017-04-13T05:18:00Z,27.2970,-97.4049,4.258,1111122 
TCOON,ioos:station:TCOON:068:1,2017-04-13T06:18:00Z,27.2970,-97.4049,4.26,1111122 
TCOON,ioos:station:TCOON:068:1,2017-04-13T07:18:00Z,27.2970,-97.4049,4.259,1111122 
TCOON,ioos:station:TCOON:068:1,2017-04-13T08:18:00Z,27.2970,-97.4049,4.254,1111122 
TCOON,ioos:station:TCOON:068:1,2017-04-13T09:18:00Z,27.2970,-97.4049,4.247,1111122 
TCOON,ioos:station:TCOON:068:1,2017-04-13T10:18:00Z,27.2970,-97.4049,4.245,1111122 
TCOON,ioos:station:TCOON:068:1,2017-04-13T11:18:00Z,27.2970,-97.4049,4.244,1111122 
TCOON,ioos:station:TCOON:068:1,2017-04-13T12:18:00Z,27.2970,-97.4049,4.244,1111122 
TCOON,ioos:station:TCOON:068:1,2017-04-13T13:18:00Z,27.2970,-97.4049,4.253,1111122 
TCOON,ioos:station:TCOON:068:1,2017-04-13T14:18:00Z,27.2970,-97.4049,4.243,1111122 
TCOON,ioos:station:TCOON:068:1,2017-04-13T15:12:00Z,27.2970,-97.4049,4.252,1111122 
TCOON,ioos:station:TCOON:068:1,2017-04-13T16:18:00Z,27.2970,-97.4049,4.245,1111122 
TCOON,ioos:station:TCOON:068:1,2017-04-13T17:18:00Z,27.2970,-97.4049,4.259,1111122 
TCOON,ioos:station:TCOON:068:1,2017-04-13T18:18:00Z,27.2970,-97.4049,4.238,1111122 
TCOON,ioos:station:TCOON:068:1,2017-04-13T19:18:00Z,27.2970,-97.4049,4.238,1111122 
TCOON,ioos:station:TCOON:068:1,2017-04-13T20:18:00Z,27.2970,-97.4049,4.24,1111122 
TCOON,ioos:station:TCOON:068:1,2017-04-13T21:18:00Z,27.2970,-97.4049,4.225,1111122 
TCOON,ioos:station:TCOON:068:1,2017-04-13T22:18:00Z,27.2970,-97.4049,4.225,1111122 
TCOON,ioos:station:TCOON:068:1,2017-04-13T23:18:00Z,27.2970,-97.4049,4.221,1111122 
TCOON,ioos:station:TCOON:068:1,2017-04-14T00:18:00Z,27.2970,-97.4049,4.229,1111122 
TCOON,ioos:station:TCOON:068:1,2017-04-14T01:18:00Z,27.2970,-97.4049,4.24,1111122 
TCOON,ioos:station:TCOON:068:1,2017-04-14T02:18:00Z,27.2970,-97.4049,4.263,1111122 
TCOON,ioos:station:TCOON:068:1,2017-04-14T03:18:00Z,27.2970,-97.4049,4.279,1111122 
TCOON,ioos:station:TCOON:068:1,2017-04-14T04:18:00Z,27.2970,-97.4049,4.279,1111122 
TCOON,ioos:station:TCOON:068:1,2017-04-14T05:18:00Z,27.2970,-97.4049,4.274,1111122 
TCOON,ioos:station:TCOON:068:1,2017-04-14T06:18:00Z,27.2970,-97.4049,4.269,1111122 
TCOON,ioos:station:TCOON:068:1,2017-04-14T07:18:00Z,27.2970,-97.4049,4.266,1111122 
TCOON,ioos:station:TCOON:068:1,2017-04-14T08:18:00Z,27.2970,-97.4049,4.267,1111122 
TCOON,ioos:station:TCOON:068:1,2017-04-14T09:18:00Z,27.2970,-97.4049,4.27,1111122 
TCOON,ioos:station:TCOON:068:1,2017-04-14T10:18:00Z,27.2970,-97.4049,4.274,1111122 
TCOON,ioos:station:TCOON:068:1,2017-04-14T11:18:00Z,27.2970,-97.4049,4.274,1111122 
TCOON,ioos:station:TCOON:068:1,2017-04-14T12:18:00Z,27.2970,-97.4049,4.273,1111122 
TCOON,ioos:station:TCOON:068:1,2017-04-14T13:18:00Z,27.2970,-97.4049,4.273,1111122 
TCOON,ioos:station:TCOON:068:1,2017-04-14T14:18:00Z,27.2970,-97.4049,4.274,1111122 